• In Germany
  • List of Countries
  • For 7 days
  • Water Temperature
  • Satellite Maps
  • Weather Map
  • Weather Widgets
  • user-avatar
    Login

    Hourly Weather Wiktoria

    Today, 19 November, Sunday

    Time Temperature Precipitation Wind Pressure Humidity
    00:00 +17°C° 0 mm 3 mps 752 mmHg 91%
    01:00 +17°C° 0 mm 3 mps 752 mmHg 90%
    02:00 +17°C° 0 mm 3 mps 752 mmHg 89%
    03:00 +16°C° 0 mm 3 mps 752 mmHg 88%
    04:00 +15°C° 0 mm 2 mps 752 mmHg 87%
    05:00 +17°C° 0 mm 3 mps 752 mmHg 82%
    06:00 +18°C° 0 mm 4 mps 753 mmHg 77%
    07:00 +19°C° 0 mm 5 mps 753 mmHg 72%
    08:00 +21°C° 0 mm 5 mps 753 mmHg 66%
    09:00 +22°C° 0 mm 5 mps 753 mmHg 59%
    10:00 +26°C° 0 mm 4 mps 753 mmHg 51%
    11:00 +27°C° 0 mm 4 mps 753 mmHg 49%
    12:00 +27°C° 0 mm 4 mps 753 mmHg 47%
    13:00 +28°C° 0 mm 3 mps 753 mmHg 45%
    14:00 +28°C° 0 mm 3 mps 752 mmHg 44%
    15:00 +28°C° 0 mm 3 mps 752 mmHg 43%
    16:00 +29°C° 0 mm 2 mps 752 mmHg 43%
    17:00 +27°C° 0 mm 2 mps 752 mmHg 48%
    18:00 +26°C° 0 mm 2 mps 752 mmHg 52%
    19:00 +24°C° 0 mm 1 mps 752 mmHg 57%
    20:00 +23°C° 0 mm 1 mps 753 mmHg 59%
    21:00 +21°C° 0 mm 2 mps 753 mmHg 62%
    22:00 +20°C° 0 mm 2 mps 753 mmHg 65%
    23:00 +20°C° 0 mm 2 mps 753 mmHg 66%

    Tomorrow, 20 November, Monday

    Time Temperature Precipitation Wind Pressure Humidity
    00:00 +19°C° 0 mm 2 mps 753 mmHg 66%
    01:00 +19°C° 0 mm 3 mps 754 mmHg 67%
    02:00 +18°C° 0 mm 3 mps 754 mmHg 70%
    03:00 +17°C° 0 mm 3 mps 754 mmHg 73%
    04:00 +17°C° 0 mm 3 mps 754 mmHg 76%
    05:00 +18°C° 0 mm 4 mps 755 mmHg 74%
    06:00 +18°C° 0 mm 4 mps 755 mmHg 72%
    07:00 +19°C° 0 mm 4 mps 755 mmHg 69%
    08:00 +21°C° 0 mm 4 mps 755 mmHg 63%
    09:00 +23°C° 0 mm 4 mps 755 mmHg 56%
    10:00 +26°C° 0 mm 3 mps 755 mmHg 50%
    11:00 +27°C° 0 mm 3 mps 755 mmHg 46%
    12:00 +29°C° 0 mm 3 mps 754 mmHg 42%
    13:00 +30°C° 0 mm 2 mps 754 mmHg 38%
    14:00 +30°C° 0 mm 2 mps 753 mmHg 37%
    15:00 +30°C° 0 mm 2 mps 753 mmHg 36%
    16:00 +31°C° 0 mm 2 mps 752 mmHg 34%
    17:00 +29°C° 0 mm 2 mps 752 mmHg 40%
    18:00 +27°C° 0 mm 2 mps 753 mmHg 45%
    19:00 +25°C° 0 mm 1 mps 753 mmHg 51%
    20:00 +24°C° 0 mm 1 mps 753 mmHg 52%
    21:00 +23°C° 0 mm 1 mps 753 mmHg 53%
    22:00 +21°C° 0 mm 2 mps 754 mmHg 54%
    23:00 +20°C° 0 mm 2 mps 754 mmHg 57%

    Day after tomorrow, 21 November, Tuesday

    Time Temperature Precipitation Wind Pressure Humidity
    00:00 +20°C° 0 mm 2 mps 754 mmHg 60%
    01:00 +19°C° 0 mm 3 mps 754 mmHg 63%
    02:00 +19°C° 0 mm 3 mps 753 mmHg 67%
    03:00 +18°C° 0 mm 3 mps 753 mmHg 72%
    04:00 +17°C° 0 mm 3 mps 753 mmHg 76%
    05:00 +18°C° 0 mm 4 mps 754 mmHg 74%
    06:00 +19°C° 0 mm 4 mps 754 mmHg 71%
    07:00 +20°C° 0 mm 4 mps 754 mmHg 69%
    08:00 +22°C° 0 mm 4 mps 754 mmHg 62%
    09:00 +25°C° 0 mm 4 mps 754 mmHg 56%
    10:00 +27°C° 0 mm 3 mps 754 mmHg 49%
    11:00 +28°C° 0 mm 3 mps 753 mmHg 45%
    12:00 +29°C° 0 mm 2 mps 753 mmHg 41%
    13:00 +31°C° 0 mm 2 mps 752 mmHg 37%
    14:00 +31°C° 0 mm 2 mps 752 mmHg 36%
    15:00 +31°C° 0 mm 2 mps 751 mmHg 35%
    16:00 +31°C° 0 mm 1 mps 751 mmHg 34%
    17:00 +30°C° 0 mm 2 mps 751 mmHg 40%
    18:00 +28°C° 0 mm 2 mps 751 mmHg 45%
    19:00 +26°C° 0 mm 2 mps 751 mmHg 51%
    20:00 +25°C° 0.1 mm 2 mps 751 mmHg 55%
    21:00 +23°C° 0.1 mm 2 mps 751 mmHg 59%
    22:00 +21°C° 0.1 mm 2 mps 752 mmHg 63%
    23:00 +20°C° 0.1 mm 2 mps 751 mmHg 66%

    22 November, Wednesday

    Time Temperature Precipitation Wind Pressure Humidity
    00:00 +20°C° 0.1 mm 2 mps 751 mmHg 69%
    01:00 +19°C° 0.1 mm 3 mps 751 mmHg 72%
    02:00 +18°C° 0 mm 3 mps 751 mmHg 72%
    03:00 +18°C° 0 mm 3 mps 751 mmHg 72%
    04:00 +17°C° 0 mm 3 mps 751 mmHg 73%
    05:00 +18°C° 0 mm 4 mps 751 mmHg 70%
    06:00 +19°C° 0 mm 4 mps 752 mmHg 67%
    07:00 +20°C° 0 mm 4 mps 752 mmHg 64%
    08:00 +22°C° 0 mm 4 mps 752 mmHg 58%
    09:00 +25°C° 0 mm 4 mps 752 mmHg 51%
    10:00 +27°C° 0 mm 4 mps 752 mmHg 45%
    11:00 +28°C° 0 mm 3 mps 751 mmHg 41%
    12:00 +29°C° 0 mm 2 mps 750 mmHg 38%
    13:00 +31°C° 0 mm 2 mps 749 mmHg 34%
    14:00 +31°C° 0 mm 1 mps 749 mmHg 33%
    15:00 +31°C° 0 mm 1 mps 748 mmHg 31%
    16:00 +32°C° 0 mm 1 mps 748 mmHg 30%
    17:00 +30°C° 0 mm 1 mps 748 mmHg 35%
    18:00 +28°C° 0 mm 1 mps 748 mmHg 40%
    19:00 +26°C° 0 mm 1 mps 748 mmHg 45%
    20:00 +25°C° 0 mm 1 mps 748 mmHg 48%
    21:00 +24°C° 0 mm 1 mps 748 mmHg 50%
    22:00 +21°C° 0 mm 2 mps 749 mmHg 53%
    23:00 +20°C° 0.1 mm 2 mps 748 mmHg 57%

    23 November, Thursday

    Time Temperature Precipitation Wind Pressure Humidity
    00:00 +20°C° 0.1 mm 2 mps 748 mmHg 61%
    01:00 +19°C° 0.1 mm 3 mps 748 mmHg 66%
    02:00 +18°C° 0 mm 3 mps 748 mmHg 70%
    03:00 +17°C° 0 mm 3 mps 748 mmHg 74%
    04:00 +17°C° 0 mm 3 mps 748 mmHg 78%
    05:00 +18°C° 0 mm 3 mps 748 mmHg 75%
    06:00 +19°C° 0 mm 4 mps 748 mmHg 73%
    07:00 +20°C° 0 mm 4 mps 749 mmHg 71%
    08:00 +22°C° 0 mm 4 mps 749 mmHg 62%
    09:00 +25°C° 0 mm 4 mps 749 mmHg 54%
    10:00 +28°C° 0 mm 3 mps 749 mmHg 45%
    11:00 +29°C° 0 mm 3 mps 748 mmHg 40%
    12:00 +31°C° 0 mm 2 mps 748 mmHg 35%
    13:00 +32°C° 0 mm 2 mps 747 mmHg 30%
    14:00 +32°C° 0 mm 2 mps 747 mmHg 30%
    15:00 +32°C° 0 mm 2 mps 747 mmHg 30%
    16:00 +32°C° 0 mm 2 mps 746 mmHg 29%
    17:00 +29°C° 0.2 mm 2 mps 746 mmHg 37%
    18:00 +27°C° 0.2 mm 3 mps 747 mmHg 45%
    19:00 +25°C° 0.2 mm 4 mps 747 mmHg 53%
    20:00 +24°C° 0.2 mm 3 mps 747 mmHg 57%
    21:00 +22°C° 0.2 mm 3 mps 748 mmHg 61%
    22:00 +21°C° 0.2 mm 2 mps 748 mmHg 65%
    23:00 +21°C° 0 mm 2 mps 748 mmHg 66%

    24 November, Friday

    Time Temperature Precipitation Wind Pressure Humidity
    00:00 +20°C° 0 mm 3 mps 748 mmHg 68%
    01:00 +20°C° 0 mm 3 mps 748 mmHg 69%
    02:00 +19°C° 0 mm 3 mps 748 mmHg 72%
    03:00 +18°C° 0 mm 2 mps 748 mmHg 76%
    04:00 +18°C° 0 mm 2 mps 748 mmHg 79%
    05:00 +19°C° 0 mm 2 mps 748 mmHg 75%
    06:00 +20°C° 0 mm 3 mps 749 mmHg 71%
    07:00 +21°C° 0 mm 3 mps 749 mmHg 67%
    08:00 +25°C° 0 mm 2 mps 749 mmHg 58%
    09:00 +27°C° 0 mm 2 mps 750 mmHg 49%
    10:00 +30°C° 0 mm 2 mps 750 mmHg 39%
    11:00 +32°C° 0 mm 2 mps 749 mmHg 35%
    12:00 +33°C° 0 mm 1 mps 749 mmHg 30%
    13:00 +35°C° 0 mm 1 mps 748 mmHg 25%
    14:00 +34°C° 0 mm 1 mps 748 mmHg 26%
    15:00 +34°C° 0 mm 1 mps 748 mmHg 26%
    16:00 +34°C° 0 mm 1 mps 748 mmHg 26%
    17:00 +32°C° 0 mm 2 mps 748 mmHg 31%
    18:00 +30°C° 0 mm 2 mps 749 mmHg 36%
    19:00 +28°C° 0 mm 2 mps 749 mmHg 41%
    20:00 +26°C° 0 mm 3 mps 749 mmHg 47%
    21:00 +25°C° 0 mm 3 mps 750 mmHg 54%
    22:00 +22°C° 0 mm 4 mps 750 mmHg 60%
    23:00 +21°C° 0 mm 3 mps 750 mmHg 64%
    Show more